This demonstration page uses our WeatherBlox Daily Observations layout. Learn more.

Left ArrowRight Arrow

Hourly Observations for April 26, 2016

Temp ( °F °C ) Dew Point ( °F °C ) Humidity (%) Winds ( mph kmh ) Pressure ( in mb ) Visibility ( mi km ) Precip ( " mm )
12:15 am 00:15 Clear 55 13 45 7 67 67 ENE 14 22 29.74 1007 10 16 0.00 0.00
12:35 am 00:35 Clear 55 13 45 7 67 67 NE 16 26 29.74 1007 10 16 0.00 0.00
12:55 am 00:55 Mostly Clear 54 12 43 6 67 67 NE 20 31 29.74 1007 10 16 0.00 0.00
1:15 am 01:15 Mostly Clear 54 12 43 6 67 67 NE 20 31 29.74 1007 10 16 0.00 0.00
1:35 am 01:35 Mostly Clear 52 11 43 6 72 72 ENE 23 37 29.74 1007 10 16 0.00 0.00
1:55 am 01:55 Partly Cloudy 52 11 43 6 72 72 ENE 22 35 29.74 1007 10 16 0.00 0.00
2:15 am 02:15 Cloudy 52 11 43 6 72 72 ENE 22 35 29.74 1007 10 16 0.00 0.00
2:35 am 02:35 Cloudy 50 10 43 6 76 76 ENE 16 26 29.74 1007 10 16 0.00 0.00
2:55 am 02:55 Cloudy 50 10 41 5 71 71 ENE 23 37 29.74 1007 10 16 0.00 0.00
3:15 am 03:15 Cloudy 48 9 41 5 76 76 ENE 18 30 29.77 1008 10 16 0.00 0.00
3:35 am 03:35 Cloudy 48 9 41 5 76 76 NE 22 35 29.77 1008 10 16 0.00 0.00
3:55 am 03:55 Cloudy 48 9 41 5 76 76 NE 20 31 29.77 1008 10 16 0.00 0.00
4:15 am 04:15 Cloudy 48 9 41 5 76 76 NE 21 33 29.74 1007 10 16 0.00 0.00
4:35 am 04:35 Partly Cloudy 48 9 39 4 71 71 ENE 22 35 29.68 1005 10 16 0.00 0.00
4:55 am 04:55 Mostly Cloudy 48 9 39 4 71 71 ENE 21 33 29.74 1007 10 16 0.00 0.00
5:15 am 05:15 Cloudy 48 9 39 4 71 71 ENE 26 43 29.68 1005 10 16 0.00 0.00
5:35 am 05:35 Cloudy 46 8 39 4 76 76 ENE 25 41 29.68 1005 10 16 0.00 0.00
5:55 am 05:55 Cloudy 46 8 39 4 76 76 ENE 24 39 29.71 1006 10 16 0.00 0.00
6:15 am 06:15 Cloudy 48 9 39 4 71 71 ENE 22 35 29.68 1005 10 16 0.00 0.00
6:35 am 06:35 Cloudy 46 8 39 4 76 76 ENE 23 37 29.68 1005 10 16 0.00 0.00
6:55 am 06:55 Cloudy 46 8 39 4 76 76 ENE 21 33 29.71 1006 10 16 0.00 0.00
7:15 am 07:15 Cloudy 46 8 39 4 76 76 ENE 21 33 29.71 1006 10 16 0.00 0.00
7:35 am 07:35 Cloudy 46 8 39 4 76 76 ENE 18 30 29.71 1006 10 16 0.00 0.00
7:55 am 07:55 Cloudy 46 8 39 4 76 76 ENE 20 31 29.71 1006 10 16 0.00 0.00
8:15 am 08:15 Cloudy 46 8 39 4 76 76 ENE 18 30 29.71 1006 10 16 0.00 0.00
8:35 am 08:35 Cloudy 48 9 39 4 71 71 NE 14 22 29.77 1008 10 16 0.00 0.00
8:55 am 08:55 Cloudy 48 9 39 4 71 71 NNE 14 22 29.77 1008 10 16 0.00 0.00
9:15 am 09:15 Mostly Cloudy 48 9 41 5 76 76 NE 16 26 29.77 1008 10 16 0.00 0.00
9:35 am 09:35 Mostly Cloudy 48 9 41 5 76 76 NE 18 30 29.74 1007 10 16 0.00 0.00
9:55 am 09:55 Cloudy 52 11 41 5 67 67 NE 21 33 29.71 1006 10 16 0.00 0.00
10:15 am 10:15 Cloudy 52 11 43 6 72 72 NE 20 31 29.71 1006 10 16 0.00 0.00
10:35 am 10:35 Cloudy 54 12 43 6 67 67 NE 21 33 29.71 1006 10 16 0.00 0.00
10:55 am 10:55 Cloudy 54 12 43 6 67 67 NE 21 33 29.71 1006 10 16 0.00 0.00
11:15 am 11:15 Cloudy 54 12 43 6 67 67 NE 23 37 29.71 1006 10 16 0.00 0.00
11:35 am 11:35 Cloudy 54 12 43 6 67 67 NE 23 37 29.71 1006 10 16 0.00 0.00
11:55 am 11:55 Cloudy 55 13 43 6 63 63 ENE 22 35 29.68 1005 10 16 0.00 0.00
12:15 pm 12:15 Cloudy 57 14 43 6 59 59 ENE 21 33 29.68 1005 10 16 0.00 0.00
12:35 pm 12:35 Cloudy 59 15 45 7 59 59 ENE 23 37 29.65 1004 10 16 0.00 0.00
12:55 pm 12:55 Cloudy 61 16 45 7 55 55 E 18 30 29.65 1004 10 16 0.00 0.00
1:15 pm 13:15 Cloudy 61 16 46 8 59 59 E 20 31 29.65 1004 10 16 0.00 0.00
1:35 pm 13:35 Cloudy 61 16 46 8 59 59 E 14 22 29.65 1004 10 16 0.00 0.00
1:55 pm 13:55 Cloudy 63 17 46 8 56 56 ENE 14 22 29.62 1003 10 16 0.00 0.00
2:15 pm 14:15 Cloudy 64 18 48 9 56 56 E 17 28 29.62 1003 10 16 0.00 0.00
2:35 pm 14:35 Mostly Cloudy 66 19 50 10 56 56 E 17 28 29.59 1002 10 16 0.00 0.00
2:55 pm 14:55 Mostly Cloudy 68 20 52 11 56 56 E 20 31 29.56 1001 10 16 0.00 0.00
3:15 pm 15:15 Cloudy 66 19 50 10 56 56 E 18 30 29.59 1002 10 16 0.00 0.00
3:35 pm 15:35 Cloudy 66 19 50 10 56 56 E 17 28 29.59 1002 10 16 0.00 0.00
3:55 pm 15:55 Cloudy 66 19 52 11 60 60 E 15 24 29.59 1002 10 16 0.00 0.00
4:15 pm 16:15 Cloudy 66 19 52 11 60 60 E 16 26 29.59 1002 10 16 0.00 0.00
4:35 pm 16:35 Partly Cloudy 68 20 54 12 60 60 E 18 30 29.53 1000 10 16 0.00 0.00
4:55 pm 16:55 Sunny 70 21 54 12 57 57 E 17 28 29.53 1000 10 16 0.00 0.00
5:15 pm 17:15 Partly Cloudy 72 22 54 12 53 53 ENE 16 26 29.50 999 10 16 0.00 0.00
5:35 pm 17:35 Partly Cloudy 70 21 55 13 60 60 ENE 17 28 29.50 999 10 16 0.00 0.00
5:55 pm 17:55 Mostly Sunny 72 22 54 12 53 53 NE 17 28 29.47 998 10 16 0.00 0.00
6:15 pm 18:15 Sunny 72 22 54 12 53 53 NE 21 33 29.47 998 10 16 0.00 0.00
6:35 pm 18:35 Sunny 70 21 52 11 53 53 NNE 21 33 29.44 997 10 16 0.00 0.00
6:55 pm 18:55 Mostly Cloudy 70 21 52 11 53 53 ENE 23 37 29.50 999 10 16 0.00 0.00
7:15 pm 19:15 Cloudy 66 19 52 11 60 60 ENE 28 44 29.56 1001 10 16 0.00 0.00
7:35 pm 19:35 Cloudy 64 18 50 10 60 60 ENE 25 41 29.53 1000 10 16 0.00 0.00
7:55 pm 19:55 Mostly Cloudy 64 18 48 9 56 56 ENE 24 39 29.47 998 10 16 0.00 0.00
8:15 pm 20:15 Mostly Cloudy with Nearby Thunderstorms 63 17 52 11 68 68 ENE 20 31 29.50 999 10 16 0.00 0.00
8:35 pm 20:35 Cloudy 63 17 52 11 68 68 NNE 15 24 29.53 1000 10 16 0.00 0.00
8:55 pm 20:55 Cloudy 63 17 50 10 64 64 NW 8 13 29.59 1002 10 16 0.00 0.00
9:15 pm 21:15 Cloudy with Thunderstorms 55 13 46 8 72 72 WNW 24 39 29.68 1005 7 11 0.00 0.00
9:35 pm 21:35 Cloudy with Thunderstorms 50 10 45 7 82 82 NNW 14 22 29.71 1006 7 11 0.72 18.29
9:55 pm 21:55 Cloudy with Nearby Thunderstorms 52 11 46 8 82 82 N 17 28 29.68 1005 9 14 0.78 19.81
10:15 pm 22:15 Cloudy 54 12 48 9 82 82 N 17 28 29.68 1005 10 16 0.00 0.00
10:35 pm 22:35 Cloudy 54 12 48 9 82 82 N 16 26 29.65 1004 10 16 0.01 0.25
10:55 pm 22:55 Cloudy 54 12 48 9 82 82 NNW 10 17 29.65 1004 10 16 0.01 0.25
11:15 pm 23:15 Cloudy 54 12 48 9 82 82 N 13 20 29.65 1004 10 16 0.00 0.00
11:35 pm 23:35 Mostly Cloudy 52 11 48 9 88 88 N 17 28 29.65 1004 10 16 0.03 0.76
11:55 pm 23:55 Mostly Cloudy 52 11 48 9 88 88 N 18 30 29.62 1003 10 16 0.06 1.52

Powered by AerisWeather